Weather History for Fargo, ND

Change the Weather History Date:

Thursday, October 24, 2013

  Actual Average Record
Temperature  
Mean Temperature 36 °F 42 °F  
Max Temperature 43 °F 52 °F 78 °F (1989)
Min Temperature 29 °F 32 °F 7 °F (1887)
Degree Days  
Heating Degree Days 29 23  
Month to date heating degree days 423 430  
Since 1 July heating degree days 548 700  
Cooling Degree Days 0 0  
Month to date cooling degree days 0 0  
Year to date cooling degree days 699 548  
Moisture  
Dew Point 29 °F    
Average Humidity 75    
Maximum Humidity 92    
Minimum Humidity 57    
Precipitation  
Precipitation T in 0.06 in 0.78 in (1975)
Month to date precipitation 4.17 1.79  
Year to date precipitation 30.48 20.42  
Snow  
Snow 0.00 in 0.10 in 4.90 in (2001)
Month to date snowfall T 0.4  
Since 1 July snowfall T 0.4  
Since 1 September snowfall T 0.4  
Snow Depth 0.00 in    
Sea Level Pressure  
Sea Level Pressure 30.28 in    
Wind  
Wind Speed 7 mph (WNW)    
Max Wind Speed 16 mph    
Max Gust Speed 20 mph    
Visibility 10 miles    
Events Rain    
T = Trace of Precipitation, MM = Missing Value Source: NWS Daily Summary

Daily Weather History Graph

Daily Weather History Graph

Search for Another Location

Airport:

Trip Planner

Search our weather history database for the weather conditions in past years. The results will help you decide how hot, cold, wet, or windy it might be!

Date:

Astronomy

Oct. 24, 2013 Rise Set
Actual Time 7:58 AM CDT 6:23 PM CDT
Civil Twilight 7:27 AM CDT 6:54 PM CDT
Nautical Twilight 6:51 AM CDT 7:30 PM CDT
Astronomical Twilight 6:16 AM CDT 8:05 PM CDT
Moon 10:41 PM CDT (10/24) 1:08 PM CDT (10/24)
Length of Visible Light 11h 27m
Length of Day
10h 25m
Waning Gibbous, 71% of the Moon is Illuminated
Oct 24
Waning Gibbous
Oct 26
Last Quarter
Nov 3
New
Nov 9
First Quarter
Nov 17
Full

Hourly Weather History & Observations

Time (CDT) Temp. Windchill Dew Point Humidity Pressure Visibility Wind Dir Wind Speed Gust Speed Precip Events Conditions
12:53 AM 36.0 °F 30.3 °F 30.9 °F 82% 30.20 in 10.0 mi NW 6.9 mph - 0.00 in Rain Light Rain
1:53 AM 35.1 °F 28.6 °F 30.9 °F 85% 30.22 in 10.0 mi WNW 8.1 mph - 0.00 in   Overcast
2:14 AM 35.6 °F 29.9 °F 30.2 °F 81% 30.19 in 10.0 mi WNW 6.9 mph - N/A   Mostly Cloudy
2:46 AM 35.6 °F 29.9 °F 30.2 °F 81% 30.19 in 10.0 mi WNW 6.9 mph - N/A   Overcast
2:53 AM 35.1 °F 30.1 °F 30.0 °F 82% 30.23 in 10.0 mi WNW 5.8 mph - N/A   Overcast
3:11 AM 33.8 °F 28.6 °F 30.2 °F 87% 30.19 in 10.0 mi West 5.8 mph - N/A   Overcast
3:53 AM 34.0 °F 28.0 °F 30.0 °F 85% 30.23 in 10.0 mi West 6.9 mph - N/A   Overcast
4:53 AM 32.0 °F 27.5 °F 28.0 °F 85% 30.24 in 10.0 mi West 4.6 mph - N/A   Mostly Cloudy
5:53 AM 30.9 °F 25.2 °F 28.0 °F 89% 30.25 in 10.0 mi WSW 5.8 mph - N/A   Partly Cloudy
6:53 AM 30.0 °F 23.2 °F 27.0 °F 88% 30.27 in 10.0 mi West 6.9 mph - N/A   Clear
7:53 AM 30.0 °F 23.2 °F 26.1 °F 85% 30.28 in 10.0 mi West 6.9 mph - N/A   Clear
8:53 AM 30.9 °F 23.5 °F 27.0 °F 85% 30.29 in 10.0 mi WNW 8.1 mph - N/A   Mostly Cloudy
9:53 AM 34.0 °F 27.2 °F 28.9 °F 82% 30.30 in 7.0 mi NW 8.1 mph - N/A   Overcast
10:53 AM 36.0 °F 28.0 °F 30.0 °F 79% 30.32 in 10.0 mi NW 11.5 mph - N/A   Overcast
11:53 AM 39.0 °F 31.8 °F 30.0 °F 70% 30.32 in 10.0 mi NW 11.5 mph - N/A   Overcast
12:53 PM 42.1 °F 36.1 °F 28.9 °F 60% 30.32 in 10.0 mi NNW 10.4 mph - N/A   Overcast
1:53 PM 42.1 °F 35.7 °F 28.9 °F 60% 30.31 in 10.0 mi NW 11.5 mph - N/A   Overcast
2:53 PM 43.0 °F 37.7 °F 30.0 °F 60% 30.31 in 10.0 mi NW 9.2 mph - N/A   Overcast
3:53 PM 42.1 °F 34.9 °F 28.9 °F 60% 30.32 in 10.0 mi WNW 13.8 mph - N/A   Overcast
4:53 PM 42.1 °F 37.1 °F 28.0 °F 58% 30.32 in 10.0 mi NW 8.1 mph - N/A   Overcast
5:53 PM 41.0 °F 37.1 °F 28.0 °F 60% 30.32 in 10.0 mi NNW 5.8 mph - N/A   Overcast
6:53 PM 39.0 °F 34.8 °F 28.9 °F 67% 30.32 in 10.0 mi West 5.8 mph - N/A   Overcast
7:53 PM 37.9 °F 34.4 °F 28.0 °F 68% 30.32 in 10.0 mi West 4.6 mph - N/A   Overcast
8:53 PM 37.9 °F 34.4 °F 28.9 °F 70% 30.32 in 10.0 mi WSW 4.6 mph - N/A   Overcast
9:53 PM 36.0 °F 32.1 °F 28.9 °F 76% 30.32 in 10.0 mi SW 4.6 mph - N/A   Overcast
10:53 PM 36.0 °F 33.3 °F 28.9 °F 76% 30.33 in 10.0 mi SW 3.5 mph - N/A   Overcast
11:53 PM 33.1 °F 27.7 °F 27.0 °F 78% 30.31 in 10.0 mi SW 5.8 mph - N/A   Clear